Regional Weather Roundup
Issued by NWS

Home | Current Version | Previous Version | Graphics & Text | Print | Product List | Glossary On
Versions: 1 2 3 4 5 6 7 8 9 10 11 12 13 14 15 16 17 18 19 20 21 22 23 24 25 26 27 28 29 30 31 32 33 34 35 36 37 38 39 40 41 42 43 44 45 46 47 48 49 50
000
ASUS45 KSLC 250810
RWRUT

UTAH REGIONAL WEATHER ROUNDUP
NATIONAL WEATHER SERVICE SALT LAKE CITY UT
100 AM MST SUN FEB 25 2018

UTZ001>011-023>025-250900-

NORTHERN UTAH

CITY           SKY/WX    TMP DP  RH WIND       PRES   REMARKS
BRIGHAM CITY   CLOUDY    27  21  76 S6        30.03R WCI  21
HILL AFB       CLOUDY    23  19  83 S8        30.01R WCI  14
LOGAN          LGT SNOW  26  20  77 N9        30.01R VSB 3/4 WCI  17
OGDEN          CLOUDY    24  18  77 S5        30.02R WCI  18
SALT LAKE CITY CLOUDY    28  22  78 CALM      30.05R
WENDOVER       CLEAR     25  11  55 NW13G21   30.11R WCI  14
HEBER CITY     LGT SNOW  18  14  86 CALM      29.97R
WEST JORDAN    CLOUDY    22  22  99 NW9       30.06R VSB 1   WCI  12

$$

UTZ011>015-024>027-250900-

CENTRAL/NORTHEAST UTAH

CITY           SKY/WX    TMP DP  RH WIND       PRES   REMARKS
PROVO AIRPORT  CLOUDY    20  17  88 SE6       30.05R WCI  12
MOAB/CANYONLAN MOCLDY    25  13  60 CALM      29.96R
DELTA          MOCLDY    16  14  93 NW10      30.06R WCI   3
PRICE          PTCLDY    16  11  80 NE3       29.94R
RICHFIELD      MOCLDY    27  21  80 S14       30.02R WCI  15
VERNAL         CLEAR     11   3  70 NW8       29.95S WCI  -1

$$

UTZ013>016-019>022-027-250900-

SOUTHERN UTAH

CITY           SKY/WX    TMP DP  RH WIND       PRES   REMARKS
BRYCE CANYON   CLEAR      4   2  91 W6        29.96R WCI  -7
CEDAR CITY     MOCLDY    24  15  68 SW7       30.03R WCI  16
MILFORD        PTCLDY    20  16  84 SW9       30.03R WCI   9
ST GEORGE      MOSUNNY   34  23  64 S3        30.12R
HANKSVILLE     CLEAR     21  12  68 CALM      30.01R
KANAB          CLEAR     25  18  74 CALM      30.10R
BLANDING         N/A     21  16  81 N6        30.03S WCI  14

$$

REGIONAL REPORTS     COLORADO/ARIZONA

CITY           SKY/WX    TMP DP  RH WIND       PRES   REMARKS
CRAIG, CO      CLOUDY     9   5  84 CALM      29.92R
GRAND JUNCTION PTCLDY    24  21  88 SE6       29.96R WCI  17
RIFLE, CO      MOCLDY    20  12  71 SW8       29.95S WCI  10
MONTROSE, CO   MOCLDY    25  15  66 W3        29.97S
CORTEZ, CO     CLOUDY    27  13  55 W3        29.96S
COLORADO CITY  PTSUNNY   30  19  64 CALM      30.10R
PAGE, AZ       MOCLDY    36  16  44 W7G17     30.03R WCI  30
GRAND CANYON   CLOUDY    24  13  62 W5        30.04R WCI  18
KINGMAN, AZ    CLEAR     27   1  32 S8        30.12R WCI  19
FLAGSTAFF, AZ  CLEAR     11   4  73 W5        30.02S WCI   3

$$

REGIONAL REPORTS    NEVADA/IDAHO/WYOMING

CITY           SKY/WX    TMP DP  RH WIND       PRES   REMARKS
LAS VEGAS, NV  PTCLDY    41  10  28 W5        30.14R
ELY, NY        PTCLDY    16   6  65 NW14      30.11R WCI   2
ELKO, NV       CLEAR      8   4  83 SW5       30.16R WCI   0
POCATELLO, ID  CLOUDY    23  19  85 SW22      30.00R WCI   8
BURLEY, ID     FLURRIES  22  15  75 W18G39    30.01R WCI   7
FORT BRIDGER,    N/A     14   8  79 SW18G24   29.90R WCI  -3
EVANSTON, WY   PTCLDY    11   8  88 SW12      29.88R WCI  -3
ROCK SPRINGS,  PTCLDY    13   6  74 SW15      29.85R WCI  -3

$$



USA.gov is the U.S. government's official web portal to all federal, state and local government web resources and services.